Skip Page Navigation
NASA JPL Caltech
NASA Logo - Jet Propulsion Laboratory + View the NASA Portal
+ Center for Near-Earth Object Studies
JPL Home Earth Solar System Stars & Galaxies Technology
JPL Solar System Dynamics
BODIES ORBITS EPHEMERIDES TOOLS PHYSICAL DATA DISCOVERY FAQ SITE MAP
IMPORTANT: The SSD Announcement email list is now available. Major changes are coming in the near future, including possible hostname and/or URL changes. To be notified of such changes, subscribe to this email list.

Please visit this page for more details.


JPL Small-Body Database Browser
Search: [ help ]  
434961 (2006 UO86)
Classification: Main-belt Asteroid          SPK-ID: 2434961
Ephemeris | Orbit Diagram | Orbital Elements | Mission Design | Physical Parameters | Discovery Circumstances ]

[ show orbit diagram ]
Orbital Elements at Epoch 2458600.5 (2019-Apr-27.0) TDB
Reference: JPL 12 (heliocentric ecliptic J2000)
 Element Value Uncertainty (1-sigma)   Units 
e .08694068638044911 1.044e-07  
a 3.148621496855078 4.5997e-08 au
q 2.874878182766261 3.3398e-07 au
i 8.436642722681841 1.3442e-05 deg
node 233.0787782275049 4.2992e-05 deg
peri 136.2407546593091 7.1479e-05 deg
M 119.6596736731265 5.6656e-05 deg
tp 2457922.195927480635
(2017-Jun-17.69592748)
0.00032021 TDB
period 2040.699749641821
5.59
4.4718e-05
1.224e-07
d
yr
n .1764100770155856 3.8657e-09 deg/d
Q 3.422364810943896 4.9996e-08 au
  Orbit Determination Parameters
   # obs. used (total)      167  
   data-arc span      7561 days (20.70 yr)  
   first obs. used      1998-05-16  
   last obs. used      2019-01-27  
   planetary ephem.      DE431  
   SB-pert. ephem.      SB431-N16  
   condition code      0  
   norm. resid. RMS      .62369  
   source      ORB  
   producer      Otto Matic  
   solution date      2019-Jul-14 08:28:11  

Additional Information
 Earth MOID = 1.88183 au 
 Jupiter MOID = 2.06045 au 
 T_jup = 3.186 
[ show covariance matrix ]

Ephemeris | Orbit Diagram | Orbital Elements | Mission Design | Physical Parameters | Discovery Circumstances ]

Physical Parameter Table
Parameter Symbol Value Units Sigma Reference Notes
absolute magnitude H 15.8   n/a MPO437683  

434961 (2006 UO86)          Discovered 2006-Oct-17 by Mt. Lemmon Survey at Mount Lemmon
Reference: Last Updated: 2015-06-04
Ephemeris | Orbit Diagram | Orbital Elements | Mission Design | Physical Parameters | Discovery Circumstances ]
ABOUT SSD CREDITS/AWARDS PRIVACY/COPYRIGHT GLOSSARY LINKS
FirstGov
(server date/time)  
NASA Home Page
Site Manager:   Ryan S. Park
Webmaster  Alan B. Chamberlin